EAI55AW EGFF-EGAC

Flight info

Callsign EAI55AW
Flight time 0h 59m
Altitude 20000
Route BCN1B BCN P69 DIZIM N864 WAL M146 ERDUV Z198 MASOP M148 MAGEE DCT
Aircraft AT76/M-SDFGIRY/S

Departure

Time 2026-04-30 17:53
Airport Cardiff International Airport (EGFF)

Arrival

Time 2026-04-30 18:53
Airport George Best Belfast City Airport (EGAC)
Time Latitude Longitude Altitude Speed Heading
2026-04-30 17:39 51.39947 -3.34131 222 ft 0 kts 117°
2026-04-30 17:43 51.39952 -3.34148 220 ft 4 kts 113°
2026-04-30 17:44 51.39970 -3.34200 218 ft 0 kts 207°
2026-04-30 17:47 51.39907 -3.34252 219 ft 4 kts 207°
2026-04-30 17:48 51.39906 -3.34521 221 ft 18 kts 296°
2026-04-30 17:48 51.40107 -3.35157 217 ft 18 kts 297°
2026-04-30 17:49 51.40033 -3.35508 216 ft 0 kts 116°
2026-04-30 17:52 51.39352 -3.33214 551 ft 121 kts 114°
2026-04-30 17:53 51.37205 -3.26113 2258 ft 153 kts 119°
2026-04-30 17:54 51.35769 -3.19729 3836 ft 174 kts 70°
2026-04-30 17:55 51.38957 -3.13364 5227 ft 189 kts 53°
2026-04-30 17:56 51.44211 -3.13103 6613 ft 206 kts 343°
2026-04-30 17:57 51.48356 -3.15194 7665 ft 210 kts 343°
2026-04-30 17:58 51.52606 -3.17172 8640 ft 214 kts 344°
2026-04-30 17:59 51.58434 -3.19843 9878 ft 221 kts 344°
2026-04-30 18:00 51.64438 -3.22603 11075 ft 228 kts 344°
2026-04-30 18:00 51.69051 -3.24726 11877 ft 232 kts 344°
2026-04-30 18:01 51.72170 -3.26156 12406 ft 234 kts 346°
2026-04-30 18:02 51.76982 -3.25297 13158 ft 235 kts 15°
2026-04-30 18:02 51.81790 -3.24043 13662 ft 237 kts 20°
2026-04-30 18:03 51.86714 -3.22704 14301 ft 243 kts 11°
2026-04-30 18:04 51.91738 -3.21596 14961 ft 244 kts 13°
2026-04-30 18:05 51.98508 -3.19906 15671 ft 248 kts 13°
2026-04-30 18:06 52.05392 -3.18267 16401 ft 253 kts
2026-04-30 18:07 52.11888 -3.17940 17082 ft 257 kts
2026-04-30 18:08 52.17262 -3.17527 17615 ft 259 kts
2026-04-30 18:09 52.24477 -3.16970 18199 ft 261 kts
2026-04-30 18:10 52.31766 -3.16406 18817 ft 263 kts
2026-04-30 18:11 52.39118 -3.15834 19371 ft 266 kts
2026-04-30 18:11 52.44680 -3.15404 19739 ft 267 kts
2026-04-30 18:12 52.50233 -3.14968 20063 ft 270 kts
2026-04-30 18:13 52.54018 -3.14673 20131 ft 276 kts
2026-04-30 18:13 52.59873 -3.14220 20139 ft 285 kts
2026-04-30 18:14 52.63864 -3.13910 20137 ft 289 kts
2026-04-30 18:15 52.69926 -3.13432 20133 ft 292 kts
2026-04-30 18:15 52.76033 -3.14079 20133 ft 296 kts 351°
2026-04-30 18:16 52.80091 -3.15258 20140 ft 296 kts 353°
2026-04-30 18:16 52.84183 -3.16220 20142 ft 298 kts 354°
2026-04-30 18:17 52.86235 -3.16702 20138 ft 298 kts 354°
2026-04-30 18:17 52.88294 -3.17191 20140 ft 299 kts 354°
2026-04-30 18:17 52.92404 -3.17345 20138 ft 295 kts
2026-04-30 18:18 52.94453 -3.17034 20139 ft 296 kts
2026-04-30 18:18 52.96508 -3.16752 20133 ft 297 kts
2026-04-30 18:18 52.98576 -3.16554 20133 ft 298 kts
2026-04-30 18:18 53.00650 -3.16408 20099 ft 298 kts
2026-04-30 18:19 53.02715 -3.16276 20127 ft 297 kts
2026-04-30 18:19 53.04781 -3.16143 20122 ft 297 kts
2026-04-30 18:19 53.06844 -3.15999 20116 ft 296 kts
2026-04-30 18:19 53.08906 -3.15859 20125 ft 296 kts
2026-04-30 18:20 53.10966 -3.15701 20127 ft 297 kts
2026-04-30 18:20 53.13029 -3.15536 20131 ft 297 kts
2026-04-30 18:20 53.15095 -3.15373 20127 ft 297 kts
2026-04-30 18:20 53.17161 -3.15212 20129 ft 297 kts
2026-04-30 18:21 53.19228 -3.15051 20133 ft 297 kts
2026-04-30 18:21 53.21266 -3.14887 20128 ft 298 kts
2026-04-30 18:21 53.23335 -3.14718 20128 ft 298 kts
2026-04-30 18:21 53.25405 -3.14555 20129 ft 298 kts
2026-04-30 18:22 53.27474 -3.14397 20129 ft 298 kts
2026-04-30 18:22 53.31617 -3.14067 20133 ft 298 kts
2026-04-30 18:22 53.33686 -3.13901 20154 ft 298 kts
2026-04-30 18:23 53.35759 -3.13735 20154 ft 298 kts
2026-04-30 18:23 53.37828 -3.13820 20148 ft 300 kts 348°
2026-04-30 18:23 53.39740 -3.15141 20151 ft 297 kts 330°
2026-04-30 18:23 53.41452 -3.17064 20151 ft 295 kts 316°
2026-04-30 18:24 53.44276 -3.21981 20147 ft 292 kts 307°
2026-04-30 18:24 53.45640 -3.24511 20146 ft 293 kts 308°
2026-04-30 18:24 53.47044 -3.26987 20146 ft 294 kts 310°
2026-04-30 18:25 53.48485 -3.29428 20144 ft 294 kts 310°
2026-04-30 18:25 53.51357 -3.34331 20140 ft 295 kts 310°
2026-04-30 18:25 53.52790 -3.36793 20140 ft 295 kts 310°
2026-04-30 18:26 53.55658 -3.41725 20140 ft 295 kts 310°
2026-04-30 18:26 53.57090 -3.44197 20140 ft 295 kts 310°
2026-04-30 18:26 53.58471 -3.46737 20140 ft 293 kts 304°
2026-04-30 18:27 53.60805 -3.52299 20139 ft 290 kts 298°
2026-04-30 18:27 53.61923 -3.55121 20133 ft 290 kts 298°
2026-04-30 18:28 53.64234 -3.60710 20133 ft 291 kts 300°
2026-04-30 18:28 53.65403 -3.63496 20132 ft 291 kts 300°
2026-04-30 18:28 53.67774 -3.69063 20138 ft 293 kts 300°
2026-04-30 18:29 53.68955 -3.71861 20136 ft 293 kts 299°
2026-04-30 18:29 53.72456 -3.80281 20129 ft 292 kts 299°
2026-04-30 18:30 53.74787 -3.85892 20131 ft 292 kts 299°
2026-04-30 18:30 53.77117 -3.91502 20132 ft 291 kts 299°
2026-04-30 18:31 53.78281 -3.94311 20132 ft 291 kts 299°
2026-04-30 18:31 53.80601 -3.99926 20127 ft 291 kts 298°
2026-04-30 18:32 53.82921 -4.05549 20127 ft 291 kts 298°
2026-04-30 18:32 53.84079 -4.08363 20127 ft 291 kts 298°
2026-04-30 18:32 53.86394 -4.13991 20126 ft 291 kts 298°
2026-04-30 18:33 53.87712 -4.16582 20136 ft 295 kts 319°
2026-04-30 18:33 53.91416 -4.19695 20146 ft 301 kts 340°
2026-04-30 18:33 53.93403 -4.20836 20135 ft 302 kts 341°
2026-04-30 18:34 53.95395 -4.21992 20131 ft 303 kts 339°
2026-04-30 18:34 53.99321 -4.24574 20128 ft 302 kts 337°
2026-04-30 18:34 54.01289 -4.25893 19988 ft 309 kts 337°
2026-04-30 18:35 54.03323 -4.27236 19705 ft 319 kts 338°
2026-04-30 18:35 54.05423 -4.28624 19416 ft 328 kts 338°
2026-04-30 18:35 54.07570 -4.30049 19137 ft 334 kts 338°
2026-04-30 18:36 54.11899 -4.32928 18573 ft 332 kts 338°
2026-04-30 18:36 54.14028 -4.34394 18268 ft 327 kts 332°
2026-04-30 18:36 54.17308 -4.39334 17630 ft 313 kts 303°
2026-04-30 18:37 54.18554 -4.42344 17319 ft 309 kts 297°
2026-04-30 18:37 54.19718 -4.45420 17005 ft 308 kts 297°
2026-04-30 18:37 54.20893 -4.48487 16704 ft 309 kts 298°
2026-04-30 18:37 54.22114 -4.51509 16392 ft 309 kts 300°
2026-04-30 18:38 54.23352 -4.54518 16083 ft 309 kts 300°
2026-04-30 18:38 54.24583 -4.57522 15781 ft 308 kts 300°
2026-04-30 18:38 54.25817 -4.60516 15487 ft 308 kts 300°
2026-04-30 18:38 54.27039 -4.63512 15199 ft 307 kts 299°
2026-04-30 18:39 54.28257 -4.66510 14901 ft 307 kts 299°
2026-04-30 18:39 54.29475 -4.69507 14617 ft 307 kts 299°
2026-04-30 18:39 54.30691 -4.72503 14332 ft 306 kts 299°
2026-04-30 18:39 54.31905 -4.75498 14087 ft 305 kts 299°
2026-04-30 18:40 54.33109 -4.78467 13854 ft 302 kts 300°
2026-04-30 18:40 54.34308 -4.81417 13633 ft 301 kts 299°
2026-04-30 18:40 54.35493 -4.84358 13392 ft 299 kts 299°
2026-04-30 18:40 54.36675 -4.87289 13145 ft 298 kts 299°
2026-04-30 18:41 54.37854 -4.90209 12906 ft 297 kts 299°
2026-04-30 18:41 54.39028 -4.93118 12667 ft 296 kts 300°
2026-04-30 18:41 54.40195 -4.96015 12428 ft 294 kts 300°
2026-04-30 18:41 54.41354 -4.98901 12211 ft 293 kts 300°
2026-04-30 18:42 54.42505 -5.01779 11989 ft 292 kts 300°
2026-04-30 18:42 54.44780 -5.07429 11659 ft 287 kts 301°
2026-04-30 18:42 54.45934 -5.10262 11338 ft 291 kts 301°
2026-04-30 18:45 54.60291 -5.34917 8012 ft 292 kts 320°
2026-04-30 18:45 54.61878 -5.37083 7687 ft 290 kts 320°
2026-04-30 18:45 54.63455 -5.39229 7370 ft 286 kts 320°
2026-04-30 18:46 54.65007 -5.41347 7066 ft 282 kts 320°
2026-04-30 18:46 54.66539 -5.43439 6757 ft 280 kts 320°
2026-04-30 18:46 54.68055 -5.45520 6452 ft 277 kts 320°
2026-04-30 18:46 54.69562 -5.47582 6126 ft 275 kts 320°
2026-04-30 18:47 54.71055 -5.49632 5814 ft 273 kts 320°
2026-04-30 18:47 54.72539 -5.51671 5500 ft 272 kts 320°
2026-04-30 18:47 54.74013 -5.53703 5181 ft 270 kts 319°
2026-04-30 18:47 54.75481 -5.55725 4864 ft 269 kts 319°
2026-04-30 18:48 54.76922 -5.57712 4542 ft 268 kts 319°
2026-04-30 18:48 54.78110 -5.60092 4196 ft 260 kts 292°
2026-04-30 18:48 54.78379 -5.63079 3933 ft 248 kts 257°
2026-04-30 18:48 54.77674 -5.65659 3678 ft 235 kts 223°
2026-04-30 18:49 54.76306 -5.66987 3450 ft 225 kts 188°
2026-04-30 18:49 54.74768 -5.66990 3231 ft 213 kts 181°
2026-04-30 18:49 54.73434 -5.67997 2963 ft 222 kts 219°
2026-04-30 18:49 54.72587 -5.70260 2715 ft 225 kts 237°
2026-04-30 18:50 54.71889 -5.72690 2485 ft 226 kts 237°
2026-04-30 18:50 54.71193 -5.75114 2260 ft 225 kts 237°
2026-04-30 18:50 54.70329 -5.77294 1901 ft 215 kts 213°
2026-04-30 18:50 54.69100 -5.78696 1609 ft 213 kts 206°
2026-04-30 18:51 54.67838 -5.80022 1314 ft 206 kts 206°
2026-04-30 18:51 54.66708 -5.81352 1033 ft 188 kts 211°
2026-04-30 18:51 54.65698 -5.82617 788 ft 170 kts 211°
2026-04-30 18:51 54.64771 -5.83734 591 ft 157 kts 210°
2026-04-30 18:52 54.63923 -5.84714 392 ft 135 kts 212°
2026-04-30 18:52 54.63197 -5.85621 242 ft 124 kts 211°
2026-04-30 18:52 54.62481 -5.86454 70 ft 123 kts 211°
2026-04-30 18:52 54.61827 -5.87223 19 ft 93 kts 216°
2026-04-30 18:53 54.61561 -5.87547 15 ft 47 kts 214°
2026-04-30 18:53 54.61478 -5.87645 13 ft 0 kts 212°
2026-04-30 18:54 54.61462 -5.87663 12 ft 12 kts 215°
2026-04-30 18:54 54.61334 -5.87773 15 ft 22 kts 185°
2026-04-30 18:55 54.61285 -5.87725 17 ft 5 kts 130°
2026-04-30 18:55 54.61276 -5.87571 15 ft 11 kts 33°
2026-04-30 18:55 54.61342 -5.87492 13 ft 11 kts 36°
2026-04-30 18:56 54.61405 -5.87344 13 ft 3 kts 123°
2026-04-30 18:56 54.61398 -5.87329 13 ft 1 kts 125°
2026-04-30 18:56 54.61394 -5.87319 13 ft 1 kts 126°
2026-04-30 18:57 54.61388 -5.87305 13 ft 1 kts 126°
2026-04-30 18:57 54.61385 -5.87297 13 ft 0 kts 126°
2026-04-30 18:58 54.61382 -5.87291 13 ft 0 kts 126°